QPF
0.05 0.04 0.03 0.02 0.02 0.02 0.04 0.05 0.05 0.04 0.03 0.03 0.03 0.02 0.02 0.03 0.03 0.02 0.02 0.02 0.02 0.01 0.01 0.01 0.01 0.02 0.02 0.02 0.02 0.01 0.01 0.01 0.01 0.01 0.01 0.00 0.00 0.00
0.05 0.05 0.04 0.03 0.03 0.03 0.03 0.05 0.07 0.07 0.04 0.03 0.02 0.02 0.01 0.01 0.02 0.02 0.02 0.02 0.01 0.01 0.01 0.01 0.01 0.01 0.02 0.02 0.02 0.01 0.01 0.00 0.00 0.00 0.00 0.00 0.00 0.00
0.09 0.07 0.06 0.07 0.06 0.05 0.05 0.06 0.06 0.07 0.04 0.02 0.01 0.01 0.01 0.01 0.02 0.01 0.02 0.02 0.01 0.01 0.01 0.01 0.01 0.01 0.01 0.01 0.01 0.00 0.00 0.00 0.00 0.00 0.00 0.00 0.00 0.00
0.11 0.12 0.12 0.11 0.09 0.07 0.06 0.06 0.05 0.04 0.04 0.03 0.02 0.01 0.01 0.01 0.01 0.01 0.02 0.02 0.02 0.01 0.01 0.01 0.01 0.01 0.01 0.01 0.00 0.00 0.00 0.00 0.00 0.00 0.00 0.00 0.00 0.00
0.13 0.17 0.17 0.17 0.12 0.07 0.06 0.06 0.05 0.04 0.03 0.03 0.02 0.02 0.02 0.01 0.02 0.02 0.02 0.02 0.02 0.02 0.02 0.02 0.01 0.01 0.01 0.01 0.01 0.01 0.01 0.01 0.00 0.00 0.00 0.00 0.00 0.00
0.12 0.13 0.12 0.11 0.08 0.06 0.06 0.07 0.07 0.07 0.05 0.04 0.02 0.02 0.01 0.01 0.02 0.03 0.02 0.02 0.02 0.02 0.03 0.02 0.02 0.01 0.01 0.01 0.01 0.01 0.01 0.01 0.01 0.01 0.01 0.01 0.00 0.00
0.11 0.09 0.08 0.07 0.06 0.07 0.06 0.06 0.07 0.06 0.05 0.04 0.02 0.02 0.01 0.02 0.03 0.03 0.03 0.03 0.02 0.03 0.02 0.02 0.01 0.01 0.02 0.02 0.01 0.01 0.01 0.01 0.01 0.01 0.01 0.01 0.01 0.01
0.09 0.10 0.10 0.09 0.08 0.07 0.07 0.06 0.06 0.05 0.04 0.04 0.03 0.01 0.02 0.03 0.04 0.04 0.04 0.04 0.03 0.02 0.02 0.02 0.01 0.02 0.02 0.02 0.02 0.02 0.02 0.02 0.02 0.02 0.02 0.02 0.02 0.02
0.07 0.06 0.06 0.06 0.07 0.08 0.08 0.09 0.08 0.07 0.06 0.04 0.02 0.01 0.02 0.03 0.04 0.03 0.03 0.03 0.02 0.02 0.04 0.03 0.02 0.03 0.04 0.03 0.03 0.03 0.03 0.02 0.02 0.02 0.02 0.02 0.02 0.02
0.08 0.07 0.08 0.08 0.08 0.08 0.09 0.09 0.08 0.07 0.08 0.06 0.04 0.03 0.03 0.04 0.04 0.03 0.04 0.04 0.03 0.03 0.05 0.04 0.03 0.03 0.03 0.03 0.03 0.03 0.03 0.03 0.02 0.02 0.02 0.01 0.01 0.01
0.07 0.07 0.07 0.06 0.07 0.10 0.11 0.12 0.11 0.11 0.12 0.11 0.09 0.07 0.06 0.06 0.05 0.04 0.04 0.04 0.03 0.03 0.04 0.05 0.04 0.04 0.04 0.03 0.02 0.03 0.03 0.03 0.03 0.02 0.02 0.02 0.02 0.01
0.07 0.07 0.06 0.06 0.09 0.11 0.11 0.11 0.13 0.15 0.15 0.14 0.12 0.10 0.09 0.08 0.07 0.05 0.05 0.05 0.04 0.03 0.03 0.03 0.03 0.04 0.04 0.03 0.02 0.03 0.03 0.03 0.03 0.03 0.03 0.03 0.03 0.02
0.07 0.05 0.05 0.06 0.06 0.07 0.07 0.06 0.07 0.09 0.10 0.11 0.10 0.10 0.09 0.08 0.07 0.07 0.06 0.05 0.04 0.03 0.02 0.03 0.04 0.05 0.06 0.04 0.03 0.02 0.02 0.03 0.03 0.03 0.03 0.03 0.03 0.02
0.06 0.04 0.04 0.04 0.04 0.05 0.06 0.07 0.08 0.08 0.08 0.09 0.09 0.08 0.08 0.08 0.08 0.08 0.07 0.06 0.04 0.03 0.03 0.04 0.05 0.04 0.05 0.04 0.03 0.02 0.02 0.03 0.03 0.03 0.02 0.03 0.03 0.02
0.05 0.04 0.04 0.05 0.05 0.05 0.06 0.08 0.08 0.07 0.07 0.07 0.07 0.07 0.07 0.08 0.09 0.08 0.07 0.06 0.05 0.05 0.04 0.04 0.04 0.04 0.05 0.04 0.03 0.03 0.03 0.03 0.04 0.05 0.05 0.05 0.04 0.03
0.05 0.06 0.06 0.06 0.06 0.07 0.08 0.09 0.09 0.10 0.10 0.10 0.10 0.09 0.09 0.09 0.09 0.08 0.07 0.07 0.06 0.05 0.05 0.06 0.06 0.06 0.06 0.05 0.05 0.04 0.04 0.04 0.04 0.05 0.06 0.07 0.07 0.06
0.06 0.06 0.04 0.03 0.03 0.03 0.04 0.05 0.07 0.08 0.08 0.08 0.08 0.08 0.07 0.08 0.08 0.07 0.07 0.07 0.07 0.06 0.05 0.05 0.05 0.06 0.06 0.06 0.05 0.05 0.05 0.04 0.04 0.05 0.05 0.05 0.05 0.05
0.03 0.03 0.03 0.04 0.04 0.04 0.04 0.05 0.05 0.06 0.07 0.07 0.07 0.06 0.06 0.06 0.06 0.06 0.06 0.06 0.06 0.05 0.05 0.04 0.04 0.04 0.04 0.04 0.03 0.03 0.03 0.04 0.05 0.05 0.06 0.06 0.05 0.04
0.04 0.04 0.04 0.03 0.04 0.04 0.04 0.05 0.04 0.04 0.05 0.05 0.05 0.06 0.05 0.05 0.05 0.06 0.06 0.05 0.05 0.05 0.04 0.04 0.04 0.04 0.04 0.04 0.03 0.03 0.03 0.04 0.05 0.05 0.05 0.05 0.04 0.03
0.04 0.04 0.04 0.04 0.04 0.03 0.03 0.04 0.04 0.04 0.04 0.05 0.06 0.07 0.08 0.09 0.09 0.08 0.07 0.07 0.06 0.05 0.04 0.04 0.04 0.05 0.06 0.07 0.07 0.06 0.05 0.04 0.04 0.04 0.03 0.03 0.03 0.03
0.03 0.03 0.04 0.04 0.05 0.05 0.05 0.04 0.04 0.04 0.04 0.05 0.06 0.06 0.07 0.07 0.07 0.07 0.07 0.08 0.07 0.07 0.07 0.07 0.07 0.07 0.06 0.06 0.06 0.05 0.04 0.04 0.03 0.02 0.02 0.03 0.03 0.03
0.03 0.03 0.03 0.04 0.04 0.04 0.04 0.03 0.04 0.04 0.04 0.04 0.05 0.05 0.05 0.06 0.07 0.07 0.07 0.06 0.06 0.06 0.07 0.06 0.05 0.04 0.04 0.04 0.04 0.04 0.03 0.02 0.02 0.02 0.02 0.03 0.03 0.04
0.01 0.01 0.01 0.01 0.01 0.01 0.01 0.01 0.01 0.02 0.02 0.02 0.02 0.03 0.03 0.03 0.03 0.03 0.03 0.03 0.03 0.04 0.04 0.04 0.03 0.03 0.03 0.03 0.03 0.03 0.02 0.02 0.02 0.02 0.02 0.02 0.02 0.02
MSLP
1014.79 1015.17 1015.60 1016.03 1016.42 1016.74 1016.97 1017.08 1017.08 1016.97 1016.79 1016.56 1016.31 1016.06 1015.84 1015.67 1015.58 1015.56 1015.64 1015.81 1016.08 1016.43 1016.83 1017.26 1017.68 1018.07 1018.40 1018.65 1018.84 1018.97 1019.05 1019.12 1019.18 1019.25 1019.34 1019.43 1019.53 1019.61
1013.78 1014.13 1014.53 1014.95 1015.35 1015.70 1015.97 1016.14 1016.21 1016.19 1016.09 1015.93 1015.74 1015.54 1015.34 1015.18 1015.08 1015.04 1015.09 1015.23 1015.46 1015.78 1016.15 1016.56 1016.97 1017.36 1017.69 1017.97 1018.17 1018.33 1018.44 1018.53 1018.62 1018.72 1018.83 1018.96 1019.08 1019.18
1012.79 1013.08 1013.43 1013.83 1014.22 1014.59 1014.90 1015.14 1015.29 1015.37 1015.37 1015.32 1015.22 1015.09 1014.95 1014.83 1014.73 1014.69 1014.72 1014.82 1015.00 1015.26 1015.58 1015.93 1016.30 1016.65 1016.97 1017.24 1017.46 1017.63 1017.78 1017.91 1018.05 1018.19 1018.35 1018.52 1018.68 1018.84
1011.80 1012.02 1012.31 1012.66 1013.04 1013.41 1013.75 1014.05 1014.29 1014.47 1014.59 1014.65 1014.67 1014.64 1014.59 1014.53 1014.48 1014.45 1014.46 1014.53 1014.66 1014.84 1015.08 1015.36 1015.66 1015.96 1016.24 1016.49 1016.72 1016.91 1017.10 1017.28 1017.48 1017.69 1017.91 1018.14 1018.36 1018.56
1010.78 1010.91 1011.13 1011.42 1011.76 1012.13 1012.49 1012.84 1013.16 1013.45 1013.68 1013.87 1014.02 1014.12 1014.18 1014.21 1014.22 1014.23 1014.24 1014.29 1014.37 1014.49 1014.65 1014.85 1015.07 1015.30 1015.53 1015.76 1015.98 1016.21 1016.43 1016.68 1016.94 1017.22 1017.51 1017.80 1018.08 1018.33
1009.72 1009.75 1009.88 1010.10 1010.39 1010.73 1011.11 1011.50 1011.88 1012.25 1012.60 1012.92 1013.19 1013.43 1013.61 1013.75 1013.85 1013.93 1013.98 1014.03 1014.08 1014.16 1014.26 1014.38 1014.52 1014.69 1014.88 1015.08 1015.30 1015.54 1015.82 1016.11 1016.44 1016.79 1017.15 1017.50 1017.82 1018.10
1008.62 1008.54 1008.58 1008.72 1008.95 1009.26 1009.62 1010.02 1010.45 1010.90 1011.34 1011.76 1012.16 1012.53 1012.85 1013.11 1013.33 1013.49 1013.61 1013.69 1013.76 1013.82 1013.88 1013.95 1014.04 1014.16 1014.31 1014.49 1014.72 1014.97 1015.28 1015.62 1015.99 1016.40 1016.80 1017.19 1017.55 1017.85
1007.54 1007.35 1007.29 1007.34 1007.51 1007.76 1008.10 1008.50 1008.95 1009.43 1009.94 1010.46 1010.96 1011.45 1011.89 1012.29 1012.63 1012.90 1013.11 1013.27 1013.38 1013.46 1013.52 1013.58 1013.65 1013.74 1013.87 1014.04 1014.26 1014.53 1014.84 1015.21 1015.61 1016.03 1016.46 1016.86 1017.22 1017.53
1006.57 1006.28 1006.12 1006.09 1006.18 1006.38 1006.68 1007.05 1007.49 1007.99 1008.53 1009.10 1009.68 1010.27 1010.83 1011.35 1011.81 1012.21 1012.54 1012.79 1012.98 1013.11 1013.21 1013.29 1013.36 1013.45 1013.57 1013.73 1013.95 1014.21 1014.53 1014.89 1015.29 1015.70 1016.11 1016.49 1016.84 1017.12
1005.80 1005.44 1005.20 1005.10 1005.12 1005.26 1005.50 1005.83 1006.23 1006.71 1007.26 1007.85 1008.47 1009.12 1009.77 1010.40 1010.97 1011.49 1011.94 1012.30 1012.59 1012.80 1012.97 1013.09 1013.19 1013.29 1013.42 1013.58 1013.78 1014.03 1014.33 1014.66 1015.02 1015.39 1015.75 1016.09 1016.39 1016.64
1005.35 1004.92 1004.64 1004.48 1004.44 1004.52 1004.70 1004.97 1005.32 1005.75 1006.26 1006.84 1007.48 1008.16 1008.86 1009.56 1010.23 1010.85 1011.40 1011.88 1012.26 1012.56 1012.79 1012.97 1013.12 1013.25 1013.38 1013.54 1013.72 1013.95 1014.20 1014.49 1014.79 1015.10 1015.40 1015.67 1015.91 1016.12
1005.24 1004.79 1004.48 1004.28 1004.20 1004.22 1004.34 1004.54 1004.83 1005.20 1005.65 1006.19 1006.80 1007.48 1008.20 1008.93 1009.66 1010.35 1010.99 1011.55 1012.02 1012.40 1012.70 1012.93 1013.12 1013.27 1013.41 1013.57 1013.73 1013.92 1014.13 1014.35 1014.59 1014.82 1015.05 1015.26 1015.44 1015.61
1005.47 1005.04 1004.72 1004.50 1004.39 1004.37 1004.43 1004.56 1004.78 1005.07 1005.46 1005.93 1006.49 1007.14 1007.84 1008.58 1009.32 1010.05 1010.72 1011.34 1011.86 1012.30 1012.65 1012.92 1013.14 1013.32 1013.47 1013.60 1013.75 1013.90 1014.06 1014.23 1014.40 1014.57 1014.73 1014.88 1015.02 1015.16
1005.99 1005.59 1005.28 1005.07 1004.94 1004.89 1004.90 1004.97 1005.11 1005.34 1005.64 1006.04 1006.53 1007.12 1007.77 1008.47 1009.20 1009.92 1010.61 1011.23 1011.78 1012.24 1012.61 1012.91 1013.15 1013.33 1013.48 1013.61 1013.73 1013.86 1013.98 1014.10 1014.22 1014.34 1014.46 1014.58 1014.69 1014.82
1006.71 1006.36 1006.09 1005.89 1005.75 1005.67 1005.65 1005.67 1005.75 1005.90 1006.13 1006.45 1006.87 1007.37 1007.96 1008.60 1009.27 1009.95 1010.60 1011.20 1011.74 1012.19 1012.57 1012.87 1013.10 1013.29 1013.43 1013.56 1013.67 1013.77 1013.87 1013.97 1014.07 1014.16 1014.26 1014.36 1014.47 1014.60
1007.55 1007.25 1007.01 1006.84 1006.71 1006.61 1006.56 1006.55 1006.58 1006.67 1006.83 1007.07 1007.40 1007.83 1008.32 1008.88 1009.48 1010.09 1010.67 1011.22 1011.72 1012.14 1012.50 1012.78 1013.01 1013.19 1013.34 1013.46 1013.56 1013.66 1013.76 1013.84 1013.93 1014.03 1014.12 1014.23 1014.36 1014.51
1008.45 1008.20 1008.01 1007.85 1007.73 1007.64 1007.57 1007.52 1007.52 1007.55 1007.65 1007.82 1008.07 1008.41 1008.81 1009.28 1009.78 1010.29 1010.80 1011.28 1011.72 1012.09 1012.41 1012.68 1012.90 1013.07 1013.22 1013.34 1013.45 1013.55 1013.66 1013.75 1013.85 1013.96 1014.07 1014.19 1014.34 1014.51
1009.39 1009.19 1009.03 1008.91 1008.80 1008.71 1008.63 1008.57 1008.53 1008.52 1008.56 1008.66 1008.83 1009.07 1009.38 1009.74 1010.14 1010.55 1010.97 1011.37 1011.74 1012.07 1012.35 1012.60 1012.80 1012.97 1013.12 1013.26 1013.38 1013.49 1013.60 1013.72 1013.83 1013.95 1014.07 1014.21 1014.37 1014.55
1010.39 1010.24 1010.12 1010.02 1009.93 1009.84 1009.76 1009.67 1009.60 1009.55 1009.54 1009.57 1009.65 1009.80 1010.00 1010.25 1010.54 1010.86 1011.19 1011.51 1011.82 1012.10 1012.35 1012.58 1012.78 1012.96 1013.11 1013.26 1013.39 1013.52 1013.64 1013.75 1013.87 1013.99 1014.12 1014.26 1014.42 1014.60
1011.49 1011.39 1011.31 1011.23 1011.15 1011.07 1010.97 1010.87 1010.76 1010.66 1010.59 1010.54 1010.53 1010.58 1010.67 1010.82 1011.00 1011.22 1011.46 1011.71 1011.96 1012.21 1012.44 1012.66 1012.86 1013.04 1013.21 1013.37 1013.51 1013.64 1013.76 1013.86 1013.97 1014.08 1014.19 1014.31 1014.45 1014.61
1012.73 1012.67 1012.62 1012.56 1012.49 1012.41 1012.30 1012.16 1012.01 1011.86 1011.71 1011.57 1011.47 1011.40 1011.39 1011.42 1011.50 1011.62 1011.78 1011.96 1012.17 1012.39 1012.61 1012.83 1013.04 1013.24 1013.42 1013.59 1013.73 1013.85 1013.96 1014.04 1014.11 1014.19 1014.26 1014.34 1014.44 1014.56
1014.10 1014.07 1014.04 1014.01 1013.94 1013.84 1013.71 1013.53 1013.33 1013.10 1012.87 1012.64 1012.42 1012.25 1012.12 1012.03 1012.01 1012.04 1012.12 1012.26 1012.43 1012.63 1012.85 1013.08 1013.30 1013.52 1013.72 1013.89 1014.02 1014.13 1014.20 1014.25 1014.28 1014.30 1014.32 1014.35 1014.40 1014.47
1015.53 1015.54 1015.53 1015.50 1015.43 1015.31 1015.14 1014.92 1014.65 1014.35 1014.02 1013.68 1013.36 1013.07 1012.83 1012.64 1012.51 1012.46 1012.47 1012.56 1012.70 1012.89 1013.11 1013.35 1013.59 1013.82 1014.03 1014.20 1014.33 1014.42 1014.47 1014.47 1014.46 1014.42 1014.38 1014.35 1014.34 1014.35
Thickness
5740 5738 5737 5738 5737 5737 5735 5732 5724 5717 5720 5728 5733 5738 5738 5737 5736 5735 5733 5731 5729 5726 5724 5722 5720 5717 5715 5713 5711 5709 5707 5705 5704 5702 5701 5699 5698 5696
5739 5737 5736 5736 5736 5735 5734 5732 5729 5724 5721 5727 5731 5736 5737 5736 5735 5733 5732 5730 5728 5726 5724 5722 5720 5718 5715 5713 5711 5708 5707 5705 5703 5701 5700 5698 5696 5695
5737 5736 5735 5735 5734 5733 5732 5730 5728 5725 5721 5726 5729 5732 5733 5732 5732 5731 5729 5727 5726 5724 5723 5721 5719 5717 5715 5712 5710 5707 5706 5704 5702 5700 5698 5696 5694 5692
5736 5734 5733 5733 5731 5731 5729 5728 5727 5726 5723 5721 5724 5726 5728 5729 5728 5727 5726 5725 5723 5723 5721 5719 5718 5715 5713 5711 5709 5706 5704 5702 5700 5698 5695 5693 5691 5689
5735 5733 5732 5731 5728 5728 5727 5725 5725 5725 5723 5721 5720 5722 5723 5724 5723 5722 5722 5720 5720 5720 5718 5717 5715 5713 5711 5708 5706 5703 5701 5698 5696 5694 5692 5689 5687 5685
5734 5733 5731 5730 5728 5727 5725 5724 5723 5721 5720 5718 5717 5717 5717 5719 5718 5715 5714 5714 5715 5716 5715 5713 5712 5710 5707 5705 5702 5699 5697 5695 5692 5690 5688 5685 5683 5680
5732 5731 5731 5730 5729 5727 5725 5723 5721 5718 5716 5714 5712 5712 5711 5711 5711 5711 5709 5708 5708 5709 5708 5707 5706 5704 5702 5700 5697 5695 5693 5691 5688 5686 5683 5681 5678 5675
5728 5728 5728 5728 5727 5726 5724 5723 5720 5716 5713 5711 5710 5708 5709 5709 5709 5707 5703 5700 5698 5702 5700 5699 5698 5696 5696 5694 5693 5691 5689 5686 5684 5681 5678 5675 5672 5669
5725 5725 5725 5725 5724 5722 5721 5719 5718 5716 5715 5712 5708 5707 5706 5706 5704 5701 5699 5696 5695 5696 5693 5690 5690 5688 5689 5687 5686 5685 5682 5680 5677 5674 5671 5668 5665 5662
5721 5720 5719 5719 5719 5717 5716 5714 5712 5711 5710 5708 5706 5705 5704 5703 5700 5698 5695 5692 5690 5689 5687 5681 5682 5680 5681 5680 5679 5677 5675 5672 5670 5666 5663 5660 5657 5654
5715 5715 5714 5714 5713 5713 5710 5708 5706 5705 5705 5703 5701 5699 5698 5696 5694 5690 5685 5682 5679 5679 5678 5675 5674 5671 5671 5670 5670 5668 5666 5663 5660 5657 5654 5650 5647 5644
5708 5708 5708 5707 5706 5705 5703 5701 5698 5697 5696 5694 5692 5691 5689 5688 5686 5682 5678 5673 5671 5669 5669 5666 5664 5660 5658 5659 5659 5657 5654 5652 5649 5646 5643 5640 5637 5633
5700 5699 5699 5699 5698 5697 5695 5693 5691 5689 5687 5684 5682 5681 5679 5678 5675 5673 5670 5666 5662 5660 5660 5656 5653 5650 5647 5645 5645 5645 5642 5640 5637 5635 5632 5629 5626 5622
5692 5690 5690 5689 5688 5687 5685 5684 5682 5679 5677 5674 5672 5670 5668 5667 5665 5663 5661 5658 5655 5653 5651 5647 5643 5640 5636 5633 5631 5631 5629 5628 5625 5623 5621 5618 5615 5612
5683 5681 5680 5679 5678 5676 5674 5672 5670 5668 5666 5663 5661 5659 5658 5657 5655 5653 5651 5648 5645 5642 5640 5638 5634 5631 5626 5622 5620 5618 5616 5615 5613 5611 5609 5606 5604 5601
5672 5671 5670 5668 5666 5664 5662 5660 5658 5655 5653 5651 5649 5648 5647 5645 5643 5641 5638 5635 5631 5629 5628 5626 5623 5620 5615 5613 5609 5607 5604 5602 5601 5599 5596 5594 5593 5590
5662 5660 5657 5654 5652 5650 5648 5646 5644 5642 5640 5638 5637 5635 5633 5631 5628 5627 5624 5621 5617 5615 5613 5612 5610 5608 5605 5601 5597 5595 5593 5590 5589 5586 5583 5581 5580 5579
5650 5645 5641 5639 5637 5635 5633 5631 5630 5628 5626 5624 5623 5621 5618 5616 5614 5612 5611 5608 5605 5602 5600 5597 5595 5593 5590 5588 5587 5583 5580 5578 5577 5574 5571 5569 5568 5567
5635 5630 5626 5623 5621 5620 5618 5617 5615 5613 5612 5610 5608 5606 5604 5602 5600 5598 5596 5594 5591 5588 5585 5583 5580 5577 5573 5572 5573 5572 5567 5565 5563 5561 5560 5557 5555 5554
5618 5614 5611 5609 5607 5605 5604 5602 5600 5599 5597 5595 5593 5590 5588 5587 5585 5582 5580 5578 5575 5573 5570 5568 5566 5563 5560 5559 5558 5557 5556 5552 5550 5548 5547 5544 5542 5541
5602 5599 5597 5595 5592 5590 5588 5586 5584 5581 5579 5578 5575 5574 5572 5570 5568 5566 5565 5563 5560 5558 5555 5553 5552 5551 5548 5545 5543 5542 5542 5541 5538 5536 5534 5531 5529 5527
5587 5584 5582 5579 5577 5575 5572 5569 5567 5564 5562 5560 5558 5557 5555 5554 5552 5550 5549 5547 5544 5542 5540 5538 5537 5536 5534 5530 5528 5527 5527 5528 5527 5525 5523 5520 5516 5514
5573 5570 5567 5564 5561 5558 5556 5553 5550 5547 5545 5543 5542 5541 5540 5538 5536 5534 5533 5531 5529 5528 5526 5524 5523 5521 5518 5516 5514 5514 5514 5513 5512 5511 5510 5508 5507 5505